Regional Weather Roundup
Issued by NWS Upton, NY

Current Version | Previous Version | Graphics & Text | Print | Product List | Glossary Off
Versions: 1 2 3 4 5 6 7 8 9 10 11 12 13 14 15 16 17 18 19 20 21 22 23 24 25 26 27

000
ASUS41 KOKX 282204
RWROKX

REGIONAL WEATHER ROUNDUP
NATIONAL WEATHER SERVICE NEW YORK NY
600 PM EDT THU APR 28 2016

NOTE: "FAIR" INDICATES FEW OR NO CLOUDS BELOW 12,000 FEET WITH NO
SIGNIFICANT WEATHER AND/OR OBSTRUCTIONS TO VISIBILITY.

NYZ071-072-176-178-NJZ106-104-282300-
NEW YORK CITY METRO AREA


CITY           SKY/WX    TMP DP  RH WIND       PRES   REMARKS
CENTRAL PARK   CLOUDY    53  30  41 S5        30.06R
LAGUARDIA APRT CLOUDY    53  30  41 S9        30.03R
KENNEDY INTL   CLOUDY    51  30  44 S9        30.06R
NEWARK/LIBERTY CLOUDY    52  33  48 S8        30.04R
BRNX BOT. GARD   N/A     52  32  46 S6        30.04F
TETERBORO      CLOUDY    53  30  41 SW12      30.02R
$$

NYZ177-179-078>081-282300-
LONG ISLAND NEW YORK

CITY           SKY/WX    TMP DP  RH WIND       PRES   REMARKS
FARMINGDALE    CLOUDY    51  31  46 S9        30.04R
ISLIP          CLOUDY    50  32  50 S9        30.03S
SHIRLEY        CLOUDY    50  33  52 S9        30.05S
RIVERHEAD        N/A     50  37  62 S1        30.04S
WESTHAMPTON    CLOUDY    46  34  62 S7        30.06S
EAST HAMPTON   FAIR      47  35  63 S7        30.05R
MONTAUK POINT    N/A     48  36  63 S6        30.07R
$$

NYZ052-065-067-282300-
HUDSON VALLEY

CITY           SKY/WX    TMP DP  RH WIND       PRES   REMARKS
WHITE PLAINS   CLOUDY    52  32  46 S7        30.01S
NEWBURGH       NOT AVBL
MONTGOMERY     CLOUDY    58  24  27 CALM      29.99S
POUGHKEEPSIE   CLOUDY    60  18  19 CALM      29.99R
ALBANY         CLOUDY    56  21  25 SE3       30.00R
$$

NJZ001-105-106-008-010-013-015-019>022-104-282300-
NEW JERSEY

CITY           SKY/WX    TMP DP  RH WIND       PRES   REMARKS
NEWARK/LIBERTY CLOUDY    52  33  48 S8        30.04R
TETERBORO      CLOUDY    53  30  41 SW12      30.02R
CALDWELL       CLOUDY    54  30  40 S9        30.02S
MORRISTOWN     CLOUDY    52  36  54 SW13      30.03R
SOMERVILLE     LGT RAIN  47  39  74 VRB5      30.04R
SUSSEX         LGT RAIN  56  34  43 CALM      30.00R
ANDOVER          N/A     52  32  46 VRB6      30.01R
TRENTON        RAIN      44  38  79 SE5       30.04R
MILLVILLE      CLOUDY    48  42  80 NE6       30.01S
ATLANTIC CITY  CLOUDY    49  44  83 E10       30.02R
WRIGHTSTOWN    LGT RAIN  45  41  86 NE7       30.02S FOG
TOMS RIVER     CLOUDY    46  36  66 E5        30.05R
BELMAR         CLOUDY    48  39  71 E3        30.05R
$$

PAZ047>061-062-071-282300-
EASTERN PENNSYLVANIA

CITY           SKY/WX    TMP DP  RH WIND       PRES   REMARKS
PHILADELPHIA   CLOUDY    48  37  65 NE12      30.04S
ALLENTOWN      LGT RAIN  47  41  80 CALM      30.04R
SCRANTON       LGT RAIN  47  42  83 SW5       30.01R
$$

CTZ002-004>006-009-010-012-RIZ004-006-007-MAZ004-011-015-282300-
SOUTHERN NEW ENGLAND
 IN CT

CITY           SKY/WX    TMP DP  RH WIND       PRES   REMARKS
BRADLEY INTL   CLOUDY    56  24  29 S15       29.99R
HARTFORD       CLOUDY    54  34  46 S10       30.02R
DANBURY        CLOUDY    53  34  48 S9        30.02R
WTRBRY/OXFORD  CLOUDY    50  34  53 SW9       30.04R
BRIDGEPORT     CLOUDY    53  38  56 S8        30.04R
MERIDEN        CLOUDY    52  34  50 S10       30.03R
NEW HAVEN      CLOUDY    50  39  66 S8        30.04S
CHESTER        FAIR      48  32  53 S6G12     30.04S
GROTON         CLOUDY    48  41  76 S9        30.05S
WILLIMANTIC    CLOUDY    52  30  43 S13       30.03R

 IN RI

CITY           SKY/WX    TMP DP  RH WIND       PRES   REMARKS
PROVIDENCE     CLOUDY    49  30  48 S16       30.06R
BLOCK ISLAND   CLOUDY    47  36  65 S10       30.06R
WESTERLY       CLOUDY    48  35  60 S8        30.06S

 IN MA

CITY           SKY/WX    TMP DP  RH WIND       PRES   REMARKS
BOSTON         CLOUDY    50  27  40 SE16      30.04R
WORCESTER      CLOUDY    56  19  23 W5        29.99R
WESTFIELD      PTSUNNY   60  18  19 SE7       29.98R
PROVINCETOWN   CLOUDY    47  29  49 S12G18    30.07R
NANTUCKET      CLOUDY    47  34  60 SE13      30.08R
$$

ANZ330-335-338-340-345-350-353-355-282300-
COASTAL MARINE OBSERVATIONS


STATION/POSITION TIME  SKY/WX   TEMP    WIND        PRES    VSBY  WAVE
                                AIR SEA DIR/SP/G                  HT/PER
                 (UTC)          (F)     (DEG/KT/KT) (MB)    (MI)  (FT/S)
NY HARB ENTRANCE 2050            49 51  130/ 12/ 14 1016.5          3/ 4
20S FIRE ISLAND  2050            48 49  110/ 12/ 14 1016.6          3/ 4
GREAT SOUTH BAY  NOT AVBL
23 SSW MONTAUK P 2150            46 47  150/ 12/ 14 1017.0          3/ 7
15 E BARNEGAT LI 2122               51                N/A           3/ 5
HUDSON CANYON    2050            49 49              1016.3          3/ 5
KINGS POINT      2100            52 54              1016.5
EXECUTION ROCKS  NOT AVBL
CENTRAL LI SOUND 2100            49     170/ 10/ 12   N/A           1/ 3
EASTERN LI SOUND 2100            48 47  170/ 10/ 14   N/A
ROBBINS REEF     2118            50     160/ 12/ 14 1016.4
$$


>>>>>>>>>>>>>>>>>>>>>>>>>>>> KEY <<<<<<<<<<<<<<<<<<<<<<<<<<<
>                                                          <
>     SKY/WX - SKY CONDITION/PRESENT WEATHER               <
>     TMP    - TEMPERATURE IN FAHRENHEIT                   <
>     DP     - DEWPOINT IN FAHRENHEIT                      <
>     RH     - RELATIVE HUMIDITY IN PERCENT                <
>     WIND   - DIRECTION AND SPEED IN MPH                  <
>     PRES   - MEAN SEA LEVEL PRESSURE IN INCHES OF HG     <
>     WCI    - WIND CHILL INDEX                            <
>     VSB    - VISIBILITY IN MILES                         <
>     HX     - HEAT INDEX                                  <
>     TC     - TEMPERATURE IN CELSIUS                      <
>     VRB    - VARIABLE WIND DIRECTION                     <
>                                                          <
>>>>>>>>>>>>>>>>>>>>>>>>>>>> KEY <<<<<<<<<<<<<<<<<<<<<<<<<<<






USA.gov is the U.S. government's official web portal to all federal, state and local government web resources and services.